Location: Charlottesville
(38.0290°N, 78.4770°W)
Time: 09:41:55
(UTC-04:00)

N. Korean satellite - Pass Details

Date: 12 October 2017
Orbit: 459 x 517 km, 97.2° (Epoch: 22 October)

Event Time Altitude Azimuth Distance (km) Brightness Sun altitude
Rises 20:09:07 0° 201° (SSW) 2,561 10.4 -18.3°
Reaches altitude 10° 20:11:42 10° 220° (SW) 1,673 9.7 -18.8°
Maximum altitude 20:14:13 18° 265° (W) 1,248 9.6 -19.3°
Drops below altitude 10° 20:16:44 10° 310° (NW) 1,659 10.0 -19.8°
Sets 20:19:17 0° 330° (NNW) 2,532 10.7 -20.3°
